Simultaneous Nadir Overpasses (SNOs) Predictions

Prediction of SNOs near US between AQUA and NPP Satellite Orbit:

Table of predicted SNOs near US for the next 10.0 days since TLE Epoch: 12/19/2015
Index Date (AQUA) Time (AQUA) AQUA Lat,Lon Date (NPP) Time (NPP) NPP Lat,Lon Distance(km) Time Diff (sec)
1 12/21/2015 07:45:37 20.00, -89.54 12/21/2015 07:37:34 19.95, -89.44 12.14 483
2 12/21/2015 09:21:43 30.06,-111.80 12/21/2015 09:16:10 30.14,-112.19 38.42 333
3 12/24/2015 06:30:18 46.43, -65.03 12/24/2015 06:32:45 46.82, -67.07 162.23 147
4 12/24/2015 08:08:12 49.94, -88.35 12/24/2015 08:13:12 50.44, -90.90 190.02 300
5 12/24/2015 09:47:06 49.89,-113.10 12/24/2015 09:54:41 50.49,-116.26 234.80 455
6 12/26/2015 19:06:23 49.97, -92.57 12/26/2015 19:03:28 49.66, -94.43 137.72 175
7 12/26/2015 20:45:16
